Regional Weather Roundup
Issued by NWS

Home | Current Version | Previous Version | Graphics & Text | Print | Product List | Glossary Off
Versions: 1 2 3 4 5 6 7 8 9 10 11 12 13 14 15 16 17 18 19 20 21 22 23 24 25 26 27 28 29 30 31 32 33 34 35 36 37 38 39 40 41 42 43 44 45 46 47 48 49 50

000
ASUS43 KFSD 192010
RWRSD

WEATHER ROUNDUP FOR SOUTH DAKOTA
NATIONAL WEATHER SERVICE SIOUX FALLS SD
200 PM CST SUN NOV 19 2017

NOTE: "FAIR" INDICATES FEW OR NO CLOUDS BELOW 12,000 FEET WITH NO
SIGNIFICANT WEATHER AND/OR OBSTRUCTIONS TO VISIBILITY.


SDZ001>005-009-010-012>017-192100-
NORTHWEST AND NORTH CENTRAL SOUTH DAKOTA

CITY           SKY/WX    TMP DP  RH WIND       PRES   REMARKS
BUFFALO          N/A     49  20  31 SW10      29.76F
FAITH            N/A     51  20  29 W12       29.84F
MOBRIDGE       CLOUDY    49  23  36 NW6       29.81F
$$

SDZ012>016-024>037-041>051-057-063-072>074-192100-
SOUTHWEST AND SOUTH CENTRAL SOUTH DAKOTA

CITY           SKY/WX    TMP DP  RH WIND       PRES   REMARKS
RAPID CTY ARPT CLOUDY    54  18  24 S6        29.87F
PIERRE         CLOUDY    52  24  33 SW10      29.85F
CUSTER         CLOUDY    41  14  33 W10       29.90F
ELLSWORTH AFB  CLOUDY    53  18  25 S6        29.86F
PHILIP         CLOUDY    57  20  23 W12       29.87F
PINE RIDGE     SUNNY     54  18  24 W13G21    29.91F
SPEARFISH      FAIR      52  16  24 NW6       29.86F
WINNER         FAIR      59  23  25 SW12      29.90F
$$

SDZ004>011-016>023-039-040-192100-
NORTHEAST SOUTH DAKOTA

CITY           SKY/WX    TMP DP  RH WIND       PRES   REMARKS
ABERDEEN       CLOUDY    51  23  33 W8        29.85F
WATERTOWN      SUNNY     47  24  40 SW18G25   29.86F
BROOKINGS      SUNNY     49  23  36 SW16      29.90F
SISSETON         N/A     50  23  34 SW18      29.82F
$$

SDZ017-020-022-023-036>040-048>070-192100-
SOUTHEAST SOUTH DAKOTA

CITY           SKY/WX    TMP DP  RH WIND       PRES   REMARKS
SIOUX FALLS    MOSUNNY   52  25  35 SW12G18   29.93F
HURON          CLOUDY    53  20  27 SW14      29.88F
CHAMBERLAIN    CLOUDY    55  26  32 S9        29.89F
MITCHELL       CLOUDY    53  24  32 SW10      29.91F
YANKTON        SUNNY     53  24  32 SW13      29.95F
$$

ABBREVIATIONS USED IN REMARKS
   TC - TEMPERATURE IN CELSIUS
  WCI - WIND CHILL INDEX
   HX - HEAT INDEX
  VSB - VISIBILITY





USA.gov is the U.S. government's official web portal to all federal, state and local government web resources and services.